Terminal Aerodrome Forecast
Issued by NWS

Home | Current Version | Previous Version | Text Only | Print | Product List | Glossary On
Versions: 1 2 3 4 5 6 7 8 9 10 11 12 13 14 15 16
000
FTUS43 KSGF 310900 AAA
TAFJLN
TAF AMD
KJLN 310907Z 3109/0106 VRB03KT P6SM OVC060
      TEMPO 3109/3113 -SHRA
     FM311300 15007KT P6SM OVC080
     FM311900 16010KT P6SM VCSH BKN070 OVC100 PROB30 3119/0101 6SM
      -SHRA
     FM010100 16010KT 6SM -SHRA OVC050=

USA.gov is the U.S. government's official web portal to all federal, state and local government web resources and services.